| time (UTC) | temp C | wind direction | speed KPH | gust KPH | rain 1hr cm | rain 24hr cm | rain mn cm | humidity % | barometer mb |
| 20260506110648 | 23 | 179 | 0.0 | 0.0 | 0.00 | 0.00 | 0.00 | 95 | 1012.5 |
| 20260506110147 | 23 | 179 | 0.0 | 0.0 | 0.00 | 0.00 | 0.00 | 95 | 1012.5 |
| 20260506105646 | 23 | 179 | 0.0 | 0.0 | 0.00 | 0.00 | 0.00 | 95 | 1012.4 |
| 20260506105144 | 23 | 179 | 0.0 | 0.0 | 0.00 | 0.00 | 0.00 | 95 | 1012.3 |
| 20260506104642 | 23 | 179 | 0.0 | 0.0 | 0.00 | 0.00 | 0.00 | 95 | 1012.3 |
| 20260506104140 | 23 | 179 | 0.0 | 0.0 | 0.00 | 0.00 | 0.00 | 95 | 1012.2 |
| 20260506103636 | 23 | 179 | 0.0 | 0.0 | 0.00 | 0.00 | 0.00 | 95 | 1012.1 |
| 20260506103136 | 23 | 179 | 0.0 | 0.0 | 0.00 | 0.00 | 0.00 | 95 | 1012.1 |
| 20260506102907 | 23 | 179 | 0.0 | 0.0 | 0.00 | 0.00 | 0.00 | 95 | 1012.0 |
| 20260506102409 | 23 | 179 | 0.0 | 0.0 | 0.00 | 0.00 | 0.00 | 95 | 1012.0 |
| 20260506101638 | 23 | 179 | 0.0 | 0.0 | 0.00 | 0.00 | 0.00 | 94 | 1012.0 |
| 20260506101136 | 23 | 179 | 0.0 | 0.0 | 0.00 | 0.00 | 0.00 | 94 | 1011.9 |
| 20260506100908 | 23 | 179 | 0.0 | 0.0 | 0.00 | 0.00 | 0.00 | 94 | 1011.9 |
| 20260506100408 | 23 | 179 | 0.0 | 0.0 | 0.00 | 0.00 | 0.00 | 94 | 1011.9 |
| 20260506095636 | 23 | 169 | 0.0 | 1.6 | 0.00 | 0.00 | 0.00 | 94 | 1011.8 |
| 20260506095136 | 23 | 168 | 0.0 | 1.6 | 0.00 | 0.00 | 0.00 | 94 | 1011.8 |
| 20260506094636 | 23 | 179 | 0.0 | 0.0 | 0.00 | 0.00 | 0.00 | 94 | 1011.7 |
| 20260506094135 | 23 | 182 | 0.0 | 0.0 | 0.00 | 0.00 | 0.00 | 94 | 1011.7 |
| 20260506093633 | 23 | 175 | 0.0 | 1.6 | 0.00 | 0.00 | 0.00 | 94 | 1011.8 |
| 20260506093134 | 23 | 194 | 0.0 | 1.6 | 0.00 | 0.00 | 0.00 | 94 | 1011.7 |
| 20260506092904 | 23 | 184 | 0.0 | 0.0 | 0.00 | 0.00 | 0.00 | 94 | 1011.7 |
| 20260506092131 | 23 | 180 | 0.0 | 1.6 | 0.00 | 0.00 | 0.00 | 94 | 1011.8 |
| 20260506091631 | 23 | 193 | 0.0 | 9.7 | 0.00 | 0.00 | 0.00 | 94 | 1011.8 |
| 20260506091129 | 23 | 198 | 0.0 | 9.7 | 0.00 | 0.00 | 0.00 | 94 | 1011.8 |
| 20260506090630 | 23 | 171 | 0.0 | 1.6 | 0.00 | 0.00 | 0.00 | 94 | 1011.7 |
| 20260506090130 | 23 | 180 | 0.0 | 1.6 | 0.00 | 0.00 | 0.00 | 94 | 1011.7 |
| 20260506085626 | 23 | 167 | 0.0 | 1.6 | 0.00 | 0.00 | 0.00 | 94 | 1011.7 |
| 20260506085128 | 23 | 199 | 0.0 | 1.6 | 0.00 | 0.00 | 0.00 | 94 | 1011.8 |
| 20260506084626 | 23 | 194 | 0.0 | 1.6 | 0.00 | 0.00 | 0.00 | 94 | 1011.7 |
| 20260506084126 | 23 | 168 | 0.0 | 0.0 | 0.00 | 0.00 | 0.00 | 94 | 1011.7 |
| 20260506083856 | 23 | 165 | 0.0 | 0.0 | 0.00 | 0.00 | 0.00 | 94 | 1011.8 |
| 20260506083356 | 23 | 164 | 0.0 | 0.0 | 0.00 | 0.00 | 0.00 | 94 | 1011.8 |
| 20260506082625 | 23 | 190 | 0.0 | 0.0 | 0.00 | 0.00 | 0.00 | 94 | 1011.7 |
| 20260506082125 | 23 | 190 | 0.0 | 0.0 | 0.00 | 0.00 | 0.00 | 94 | 1011.7 |
| 20260506081624 | 23 | 200 | 0.0 | 0.0 | 0.00 | 0.00 | 0.00 | 94 | 1011.7 |
| 20260506081125 | 23 | 163 | 0.0 | 1.6 | 0.00 | 0.00 | 0.00 | 94 | 1011.7 |
| 20260506080624 | 23 | 189 | 0.0 | 1.6 | 0.00 | 0.00 | 0.00 | 94 | 1011.6 |
| 20260506080124 | 23 | 193 | 0.0 | 0.0 | 0.00 | 0.00 | 0.00 | 94 | 1011.6 |
| 20260506073125 | 23 | 175 | 0.0 | 0.0 | 0.00 | 0.00 | 0.00 | 94 | 1011.5 |
| 20260506072626 | 23 | 179 | 0.0 | 11.3 | 0.00 | 0.00 | 0.00 | 94 | 1011.6 |
| 20260506072125 | 23 | 190 | 0.0 | 11.3 | 0.00 | 0.00 | 0.00 | 94 | 1011.5 |
| 20260506071626 | 23 | 172 | 0.0 | 3.2 | 0.00 | 0.00 | 0.00 | 94 | 1011.5 |
| 20260506071124 | 23 | 190 | 0.0 | 3.2 | 0.00 | 0.00 | 0.00 | 94 | 1011.7 |
| 20260506070630 | 23 | 188 | 0.0 | 3.2 | 0.00 | 0.00 | 0.00 | 94 | 1011.8 |
| 20260506070626 | 23 | 176 | 0.0 | 3.2 | 0.00 | 0.00 | 0.00 | 94 | 1011.8 |
| 20260506062115 | 23 | 151 | 0.0 | 8.0 | 0.00 | 0.00 | 0.00 | 93 | 1011.9 |
| 20260506061611 | 23 | 175 | 0.0 | 0.0 | 0.00 | 0.00 | 0.00 | 93 | 1011.9 |
| 20260506061112 | 23 | 182 | 0.0 | 1.6 | 0.00 | 0.00 | 0.00 | 93 | 1011.9 |
| 20260506060611 | 23 | 165 | 0.0 | 8.0 | 0.00 | 0.00 | 0.00 | 93 | 1011.9 |
| 20260506060110 | 23 | 163 | 0.0 | 8.0 | 0.00 | 0.00 | 0.00 | 93 | 1011.9 |
| 20260506051105 | 24 | 153 | 0.0 | 11.3 | 0.00 | 0.00 | 0.00 | 92 | 1012.0 |
| 20260506050604 | 24 | 175 | 1.6 | 11.3 | 0.00 | 0.00 | 0.00 | 91 | 1012.0 |
| 20260506050104 | 24 | 168 | 1.6 | 14.5 | 0.00 | 0.00 | 0.00 | 91 | 1011.8 |
| 20260506045105 | 24 | 153 | 1.6 | 19.3 | 0.00 | 0.00 | 0.00 | 91 | 1011.5 |
| 20260506044839 | 24 | 150 | 4.8 | 19.3 | 0.00 | 0.00 | 0.00 | 91 | 1011.5 |
| 20260506044103 | 24 | 176 | 4.8 | 19.3 | 0.00 | 0.00 | 0.00 | 91 | 1011.6 |
| 20260506043602 | 24 | 196 | 0.0 | 16.1 | 0.00 | 0.00 | 0.00 | 91 | 1011.7 |
| 20260506043102 | 24 | 183 | 0.0 | 1.6 | 0.00 | 0.00 | 0.00 | 90 | 1011.7 |
| 20260506042600 | 24 | 168 | 0.0 | 1.6 | 0.00 | 0.00 | 0.00 | 90 | 1011.7 |
| 20260506042057 | 24 | 161 | 0.0 | 0.0 | 0.00 | 0.00 | 0.00 | 90 | 1011.6 |
| 20260506041557 | 24 | 150 | 0.0 | 0.0 | 0.00 | 0.00 | 0.00 | 90 | 1011.6 |
| 20260506041057 | 24 | 151 | 0.0 | 17.7 | 0.00 | 0.00 | 0.00 | 90 | 1011.6 |
| 20260506040556 | 24 | 162 | 0.0 | 17.7 | 0.00 | 0.00 | 0.00 | 90 | 1011.6 |
| 20260506040057 | 24 | 184 | 0.0 | 6.4 | 0.00 | 0.00 | 0.00 | 89 | 1011.5 |
| 20260506035556 | 25 | 184 | 0.0 | 6.4 | 0.00 | 0.00 | 0.00 | 89 | 1011.4 |
| 20260506035056 | 25 | 173 | 0.0 | 1.6 | 0.00 | 0.00 | 0.00 | 89 | 1011.4 |
| 20260506034557 | 25 | 184 | 0.0 | 9.7 | 0.00 | 0.00 | 0.00 | 89 | 1011.3 |
| 20260506034057 | 25 | 167 | 1.6 | 17.7 | 0.00 | 0.00 | 0.00 | 89 | 1011.3 |
| 20260506033828 | 25 | 198 | 1.6 | 17.7 | 0.00 | 0.00 | 0.00 | 89 | 1011.3 |
| 20260506033055 | 25 | 168 | 0.0 | 1.6 | 0.00 | 0.00 | 0.00 | 88 | 1011.2 |
| 20260506032556 | 25 | 178 | 0.0 | 1.6 | 0.00 | 0.00 | 0.00 | 88 | 1011.3 |
| 20260506032056 | 25 | 202 | 0.0 | 1.6 | 0.00 | 0.00 | 0.00 | 88 | 1011.2 |
| 20260506031556 | 25 | 143 | 0.0 | 0.0 | 0.00 | 0.00 | 0.00 | 89 | 1011.2 |
| 20260506031058 | 25 | 168 | 0.0 | 1.6 | 0.00 | 0.00 | 0.00 | 89 | 1011.2 |
| 20260506030557 | 25 | 153 | 0.0 | 1.6 | 0.00 | 0.00 | 0.00 | 88 | 1011.0 |
| 20260506030054 | 25 | 166 | 0.0 | 1.6 | 0.00 | 0.00 | 0.00 | 88 | 1011.0 |
| 20260506025554 | 25 | 168 | 0.0 | 1.6 | 0.00 | 0.00 | 0.00 | 88 | 1010.9 |
| 20260506025056 | 25 | 170 | 0.0 | 1.6 | 0.00 | 0.00 | 0.00 | 88 | 1010.9 |
| 20260506024555 | 25 | 169 | 0.0 | 3.2 | 0.00 | 0.00 | 0.00 | 88 | 1010.7 |
| 20260506024053 | 25 | 150 | 0.0 | 3.2 | 0.00 | 0.00 | 0.00 | 88 | 1010.7 |
| 20260506023823 | 25 | 182 | 0.0 | 1.6 | 0.00 | 0.00 | 0.00 | 88 | 1010.7 |
| 20260506023052 | 25 | 196 | 0.0 | 1.6 | 0.00 | 0.00 | 0.00 | 88 | 1010.5 |
| 20260506022553 | 25 | 150 | 0.0 | 1.6 | 0.00 | 0.00 | 0.00 | 88 | 1010.5 |
| 20260506022053 | 25 | 178 | 0.0 | 0.0 | 0.00 | 0.00 | 0.00 | 88 | 1010.5 |
| 20260506021552 | 25 | 162 | 0.0 | 0.0 | 0.00 | 0.00 | 0.00 | 88 | 1010.6 |
| 20260506021052 | 25 | 144 | 0.0 | 0.0 | 0.00 | 0.00 | 0.00 | 88 | 1010.7 |
| 20260506020825 | 25 | 179 | 0.0 | 0.0 | 0.00 | 0.00 | 0.00 | 88 | 1010.5 |
| 20260506020053 | 25 | 178 | 0.0 | 1.6 | 0.00 | 0.00 | 0.00 | 88 | 1010.5 |
| 20260506015552 | 25 | 172 | 0.0 | 1.6 | 0.00 | 0.00 | 0.00 | 88 | 1010.4 |
| 20260506015050 | 25 | 173 | 0.0 | 0.0 | 0.00 | 0.00 | 0.00 | 88 | 1010.4 |
| 20260506014551 | 25 | 185 | 0.0 | 0.0 | 0.00 | 0.00 | 0.00 | 87 | 1010.4 |
| 20260506014052 | 25 | 195 | 0.0 | 0.0 | 0.00 | 0.00 | 0.00 | 87 | 1010.3 |
| 20260506013550 | 25 | 192 | 0.0 | 0.0 | 0.00 | 0.00 | 0.00 | 86 | 1010.3 |
| 20260506013050 | 25 | 197 | 0.0 | 0.0 | 0.00 | 0.00 | 0.00 | 86 | 1010.2 |
| 20260506012823 | 25 | 180 | 0.0 | 1.6 | 0.00 | 0.00 | 0.00 | 85 | 1010.1 |
| 20260506012051 | 25 | 170 | 0.0 | 1.6 | 0.00 | 0.00 | 0.00 | 85 | 1010.0 |
| 20260506011552 | 26 | 176 | 0.0 | 0.0 | 0.00 | 0.00 | 0.00 | 85 | 1009.8 |
| 20260506011050 | 26 | 173 | 0.0 | 1.6 | 0.00 | 0.00 | 0.00 | 84 | 1009.5 |
| 20260506010553 | 26 | 186 | 0.0 | 4.8 | 0.00 | 0.00 | 0.00 | 84 | 1009.5 |
| 20260506010548 | 26 | 192 | 0.0 | 4.8 | 0.00 | 0.00 | 0.00 | 84 | 1009.6 |
| 20260506005551 | 26 | 163 | 0.0 | 0.0 | 0.00 | 0.00 | 0.00 | 84 | 1009.3 |
| 20260506005547 | 26 | 174 | 0.0 | 0.0 | 0.00 | 0.00 | 0.00 | 84 | 1009.5 |
| 20260506004546 | 26 | 171 | 0.0 | 0.0 | 0.00 | 0.00 | 0.00 | 84 | 1009.2 |
| 20260506004047 | 26 | 193 | 0.0 | 0.0 | 0.00 | 0.00 | 0.00 | 83 | 1009.1 |
| 20260506003545 | 26 | 163 | 3.2 | 14.5 | 0.00 | 0.00 | 0.00 | 83 | 1009.1 |
| 20260506003047 | 26 | 163 | 6.4 | 16.1 | 0.00 | 0.00 | 0.00 | 82 | 1009.1 |
| 20260506002547 | 26 | 165 | 8.0 | 19.3 | 0.00 | 0.00 | 0.00 | 82 | 1009.2 |
| 20260506002046 | 26 | 161 | 6.4 | 19.3 | 0.00 | 0.00 | 0.00 | 82 | 1009.1 |
| 20260506001546 | 27 | 154 | 4.8 | 17.7 | 0.00 | 0.00 | 0.00 | 82 | 1009.1 |
| 20260506001044 | 27 | 159 | 8.0 | 20.9 | 0.00 | 0.00 | 0.00 | 81 | 1009.0 |
| 20260506000545 | 27 | 163 | 11.3 | 20.9 | 0.00 | 0.00 | 0.00 | 81 | 1008.9 |
| 20260506000044 | 27 | 184 | 11.3 | 19.3 | 0.00 | 0.00 | 0.00 | 81 | 1008.9 |
| 20260505235544 | 27 | 202 | 11.3 | 24.1 | 0.00 | 0.00 | 0.00 | 80 | 1008.9 |
| 20260505235045 | 27 | 179 | 11.3 | 27.4 | 0.00 | 0.00 | 0.00 | 80 | 1008.8 |
| 20260505234546 | 27 | 165 | 8.0 | 27.4 | 0.00 | 0.00 | 0.00 | 80 | 1008.7 |
| 20260505234314 | 27 | 168 | 6.4 | 22.5 | 0.00 | 0.00 | 0.00 | 80 | 1008.8 |
| 20260505233544 | 27 | 182 | 6.4 | 22.5 | 0.00 | 0.00 | 0.00 | 80 | 1008.7 |
| 20260505233045 | 27 | 161 | 3.2 | 19.3 | 0.00 | 0.00 | 0.00 | 80 | 1008.9 |
| 20260505232543 | 27 | 186 | 3.2 | 20.9 | 0.00 | 0.00 | 0.00 | 81 | 1008.8 |
| 20260505232044 | 27 | 167 | 9.7 | 20.9 | 0.00 | 0.00 | 0.00 | 79 | 1008.8 |
| 20260505231545 | 28 | 215 | 11.3 | 25.7 | 0.00 | 0.00 | 0.00 | 79 | 1008.8 |
| 20260505231042 | 28 | 194 | 11.3 | 25.7 | 0.00 | 0.00 | 0.00 | 79 | 1008.7 |
| 20260505230539 | 28 | 176 | 9.7 | 24.1 | 0.00 | 0.00 | 0.00 | 79 | 1008.7 |
| 20260505230039 | 28 | 208 | 4.8 | 19.3 | 0.00 | 0.00 | 0.00 | 79 | 1008.7 |
| 20260505225541 | 28 | 158 | 0.0 | 22.5 | 0.00 | 0.00 | 0.00 | 78 | 1008.7 |
| 20260505225310 | 28 | 157 | 6.4 | 22.5 | 0.00 | 0.00 | 0.00 | 78 | 1008.7 |
| 20260505224544 | 28 | 165 | 4.8 | 20.9 | 0.00 | 0.00 | 0.00 | 77 | 1008.8 |
| 20260505224538 | 28 | 145 | 9.7 | 20.9 | 0.00 | 0.00 | 0.00 | 77 | 1008.6 |
| 20260505223537 | 28 | 169 | 0.0 | 16.1 | 0.00 | 0.00 | 0.00 | 77 | 1008.9 |
| 20260505223037 | 28 | 171 | 1.6 | 14.5 | 0.00 | 0.00 | 0.00 | 79 | 1009.1 |
| 20260505222807 | 28 | 194 | 8.0 | 27.4 | 0.00 | 0.00 | 0.00 | 78 | 1009.1 |
| 20260505222036 | 28 | 160 | 8.0 | 27.4 | 0.00 | 0.00 | 0.00 | 77 | 1009.1 |
| 20260505221537 | 28 | 157 | 8.0 | 22.5 | 0.00 | 0.00 | 0.00 | 77 | 1009.1 |
| 20260505221037 | 28 | 187 | 6.4 | 22.5 | 0.00 | 0.00 | 0.00 | 78 | 1009.2 |
| 20260505220539 | 28 | 199 | 1.6 | 19.3 | 0.00 | 0.00 | 0.00 | 78 | 1009.1 |
| 20260505220036 | 28 | 186 | 1.6 | 19.3 | 0.00 | 0.00 | 0.00 | 78 | 1009.3 |
| 20260505215535 | 29 | 192 | 0.0 | 1.6 | 0.00 | 0.00 | 0.00 | 77 | 1009.3 |
| 20260505215034 | 28 | 179 | 3.2 | 16.1 | 0.00 | 0.00 | 0.00 | 78 | 1009.4 |
| 20260505214533 | 28 | 194 | 9.7 | 27.4 | 0.00 | 0.00 | 0.00 | 78 | 1009.5 |
| 20260505214035 | 28 | 160 | 12.9 | 27.4 | 0.00 | 0.00 | 0.00 | 78 | 1009.4 |
| 20260505213806 | 28 | 172 | 11.3 | 24.1 | 0.00 | 0.00 | 0.00 | 78 | 1009.5 |
| 20260505213034 | 28 | 175 | 11.3 | 20.9 | 0.00 | 0.00 | 0.00 | 77 | 1009.5 |
| 20260505212535 | 29 | 193 | 9.7 | 20.9 | 0.00 | 0.00 | 0.00 | 76 | 1009.5 |
| 20260505212033 | 29 | 166 | 8.0 | 19.3 | 0.00 | 0.00 | 0.00 | 76 | 1009.6 |
| 20260505211534 | 29 | 200 | 8.0 | 19.3 | 0.00 | 0.00 | 0.00 | 78 | 1009.5 |
| 20260505211035 | 29 | 215 | 6.4 | 25.7 | 0.00 | 0.00 | 0.00 | 76 | 1009.6 |
| 20260505210806 | 29 | 188 | 8.0 | 25.7 | 0.00 | 0.00 | 0.00 | 78 | 1009.8 |
| 20260505210305 | 28 | 149 | 6.4 | 25.7 | 0.00 | 0.00 | 0.00 | 77 | 1009.8 |
| 20260505205803 | 29 | 147 | 4.8 | 25.7 | 0.00 | 0.00 | 0.00 | 78 | 1010.0 |
| 20260505205033 | 29 | 216 | 6.4 | 22.5 | 0.00 | 0.00 | 0.00 | 78 | 1010.0 |
| 20260505204803 | 29 | 170 | 3.2 | 22.5 | 0.00 | 0.00 | 0.00 | 77 | 1010.1 |
| 20260505204033 | 28 | 154 | 0.0 | 1.6 | 0.00 | 0.00 | 0.00 | 79 | 1010.1 |
| 20260505203532 | 28 | 166 | 0.0 | 1.6 | 0.00 | 0.00 | 0.00 | 77 | 1010.2 |
| 20260505203305 | 28 | 199 | 0.0 | 1.6 | 0.00 | 0.00 | 0.00 | 78 | 1010.3 |
| 20260505202532 | 29 | 172 | 0.0 | 1.6 | 0.00 | 0.00 | 0.00 | 79 | 1010.3 |
| 20260505202031 | 29 | 159 | 0.0 | 1.6 | 0.00 | 0.00 | 0.00 | 78 | 1010.4 |
| 20260505201531 | 29 | 170 | 0.0 | 14.5 | 0.00 | 0.00 | 0.00 | 77 | 1010.4 |
| 20260505201033 | 28 | 163 | 0.0 | 14.5 | 0.00 | 0.00 | 0.00 | 78 | 1010.4 |
| 20260505200533 | 28 | 170 | 1.6 | 19.3 | 0.00 | 0.00 | 0.00 | 77 | 1010.5 |
| 20260505200033 | 28 | 195 | 1.6 | 19.3 | 0.00 | 0.00 | 0.00 | 77 | 1010.5 |
| 20260505195532 | 29 | 207 | 0.0 | 12.9 | 0.00 | 0.00 | 0.00 | 76 | 1010.6 |
| 20260505195033 | 28 | 194 | 0.0 | 12.9 | 0.00 | 0.00 | 0.00 | 77 | 1010.7 |
| 20260505194531 | 28 | 159 | 0.0 | 9.7 | 0.00 | 0.00 | 0.00 | 77 | 1010.7 |
| 20260505194302 | 29 | 231 | 0.0 | 19.3 | 0.00 | 0.00 | 0.00 | 75 | 1010.8 |
| 20260505193531 | 29 | 152 | 1.6 | 19.3 | 0.00 | 0.00 | 0.00 | 77 | 1010.8 |
| 20260505193032 | 28 | 180 | 0.0 | 17.7 | 0.00 | 0.00 | 0.00 | 77 | 1010.8 |
| 20260505192802 | 28 | 211 | 0.0 | 1.6 | 0.00 | 0.00 | 0.00 | 78 | 1010.9 |
| 20260505192032 | 28 | 166 | 0.0 | 14.5 | 0.00 | 0.00 | 0.00 | 78 | 1010.9 |
| 20260505191532 | 28 | 180 | 0.0 | 14.5 | 0.00 | 0.00 | 0.00 | 78 | 1010.9 |
| 20260505191031 | 28 | 205 | 0.0 | 6.4 | 0.00 | 0.00 | 0.00 | 79 | 1011.1 |
| 20260505190531 | 28 | 140 | 0.0 | 11.3 | 0.00 | 0.00 | 0.00 | 78 | 1011.1 |
| 20260505190031 | 28 | 202 | 0.0 | 11.3 | 0.00 | 0.00 | 0.00 | 80 | 1011.0 |
| 20260505185531 | 28 | 150 | 0.0 | 1.6 | 0.00 | 0.00 | 0.00 | 79 | 1011.0 |
| 20260505185031 | 28 | 197 | 1.6 | 11.3 | 0.00 | 0.00 | 0.00 | 80 | 1011.1 |
| 20260505184532 | 28 | 259 | 4.8 | 22.5 | 0.00 | 0.00 | 0.00 | 81 | 1011.1 |
| 20260505184031 | 28 | 167 | 8.0 | 22.5 | 0.00 | 0.00 | 0.00 | 81 | 1011.1 |
| 20260505183531 | 28 | 187 | 4.8 | 19.3 | 0.00 | 0.00 | 0.00 | 82 | 1011.1 |
| 20260505183033 | 27 | 169 | 4.8 | 17.7 | 0.00 | 0.00 | 0.00 | 84 | 1011.2 |
| 20260505182805 | 27 | 196 | 8.0 | 19.3 | 0.00 | 0.00 | 0.00 | 83 | 1011.3 |
| 20260505182033 | 27 | 194 | 8.0 | 19.3 | 0.00 | 0.00 | 0.00 | 83 | 1011.4 |
| 20260505181531 | 27 | 155 | 4.8 | 16.1 | 0.00 | 0.00 | 0.00 | 83 | 1011.4 |
| 20260505181301 | 27 | 205 | 4.8 | 16.1 | 0.00 | 0.00 | 0.00 | 84 | 1011.3 |
| 20260505180529 | 27 | 157 | 6.4 | 17.7 | 0.00 | 0.00 | 0.00 | 83 | 1011.2 |
| 20260505180029 | 27 | 207 | 8.0 | 19.3 | 0.00 | 0.00 | 0.00 | 84 | 1011.3 |
| 20260505175527 | 27 | 187 | 8.0 | 19.3 | 0.00 | 0.00 | 0.00 | 85 | 1011.2 |
| 20260505175028 | 26 | 187 | 9.7 | 19.3 | 0.00 | 0.00 | 0.00 | 84 | 1011.3 |
| 20260505174759 | 26 | 171 | 8.0 | 19.3 | 0.00 | 0.00 | 0.00 | 84 | 1011.5 |
| 20260505174258 | 26 | 168 | 6.4 | 20.9 | 0.00 | 0.00 | 0.00 | 84 | 1011.5 |
| 20260505173527 | 26 | 198 | 3.2 | 20.9 | 0.00 | 0.00 | 0.00 | 85 | 1011.7 |
| 20260505173024 | 26 | 238 | 3.2 | 14.5 | 0.00 | 0.00 | 0.00 | 86 | 1011.6 |
| 20260505172524 | 26 | 180 | 3.2 | 17.7 | 0.00 | 0.00 | 0.00 | 88 | 1011.8 |
| 20260505172252 | 25 | 158 | 3.2 | 17.7 | 0.00 | 0.00 | 0.00 | 87 | 1012.0 |
| 20260505171521 | 25 | 230 | 3.2 | 12.9 | 0.00 | 0.00 | 0.00 | 87 | 1012.0 |
| 20260505171248 | 25 | 180 | 3.2 | 16.1 | 0.00 | 0.00 | 0.00 | 88 | 1012.0 |
| 20260505170517 | 25 | 210 | 1.6 | 16.1 | 0.00 | 0.00 | 0.00 | 87 | 1012.1 |
| 20260505170246 | 25 | 198 | 3.2 | 12.9 | 0.00 | 0.00 | 0.00 | 88 | 1012.1 |
| 20260505165516 | 25 | 200 | 4.8 | 14.5 | 0.00 | 0.00 | 0.00 | 88 | 1012.1 |
| 20260505165017 | 25 | 162 | 4.8 | 14.5 | 0.00 | 0.00 | 0.00 | 89 | 1012.1 |
| 20260505164516 | 25 | 170 | 3.2 | 14.5 | 0.00 | 0.00 | 0.00 | 89 | 1012.1 |
| 20260505164013 | 25 | 211 | 1.6 | 16.1 | 0.00 | 0.00 | 0.00 | 90 | 1012.0 |
| 20260505163514 | 24 | 195 | 0.0 | 16.1 | 0.00 | 0.00 | 0.00 | 89 | 1011.9 |
| 20260505163013 | 24 | 233 | 1.6 | 11.3 | 0.00 | 0.00 | 0.00 | 89 | 1012.1 |
| 20260505162512 | 24 | 173 | 1.6 | 11.3 | 0.00 | 0.00 | 0.00 | 89 | 1012.0 |
| 20260505162011 | 24 | 188 | 0.0 | 8.0 | 0.00 | 0.00 | 0.00 | 89 | 1012.1 |
| 20260505161744 | 24 | 200 | 0.0 | 14.5 | 0.00 | 0.00 | 0.00 | 89 | 1012.1 |
| 20260505161243 | 24 | 183 | 0.0 | 14.5 | 0.00 | 0.00 | 0.00 | 90 | 1012.1 |
| 20260505160743 | 24 | 209 | 0.0 | 6.4 | 0.00 | 0.00 | 0.00 | 90 | 1012.1 |
| 20260505153011 | 23 | 226 | 4.8 | 17.7 | 0.00 | 0.00 | 0.00 | 92 | 1012.3 |
| 20260505152510 | 23 | 209 | 6.4 | 16.1 | 0.00 | 0.00 | 0.00 | 91 | 1012.2 |
| 20260505152010 | 23 | 185 | 6.4 | 16.1 | 0.00 | 0.00 | 0.00 | 91 | 1012.2 |
| 20260505151511 | 23 | 202 | 6.4 | 16.1 | 0.00 | 0.00 | 0.00 | 91 | 1012.3 |
| 20260505151009 | 23 | 180 | 6.4 | 14.5 | 0.00 | 0.00 | 0.00 | 91 | 1012.3 |
| 20260505150510 | 23 | 219 | 8.0 | 19.3 | 0.00 | 0.00 | 0.00 | 91 | 1012.2 |
| 20260505140508 | 22 | 161 | 1.6 | 17.7 | 0.00 | 0.00 | 0.00 | 93 | 1012.0 |
| 20260505125003 | 21 | 173 | 1.6 | 14.5 | 0.00 | 0.00 | 0.00 | 93 | 1011.5 |
| 20260505124734 | 21 | 171 | 1.6 | 14.5 | 0.00 | 0.00 | 0.00 | 93 | 1011.5 |
| 20260505124004 | 21 | 168 | 0.0 | 16.1 | 0.00 | 0.00 | 0.00 | 93 | 1011.6 |
| 20260505123734 | 21 | 252 | 0.0 | 16.1 | 0.00 | 0.00 | 0.00 | 94 | 1011.6 |
| 20260505123002 | 21 | 185 | 1.6 | 12.9 | 0.00 | 0.00 | 0.00 | 94 | 1011.6 |
| 20260505122504 | 21 | 192 | 1.6 | 12.9 | 0.00 | 0.00 | 0.00 | 94 | 1011.6 |
| 20260505122004 | 21 | 194 | 0.0 | 9.7 | 0.00 | 0.00 | 0.00 | 94 | 1011.4 |
| 20260505121503 | 21 | 172 | 0.0 | 9.7 | 0.00 | 0.00 | 0.00 | 94 | 1011.1 |
| 20260505121004 | 21 | 207 | 1.6 | 14.5 | 0.00 | 0.00 | 0.00 | 94 | 1011.4 |
| 20260505120502 | 21 | 178 | 1.6 | 14.5 | 0.00 | 0.00 | 0.00 | 94 | 1011.3 |
| 20260505120002 | 21 | 219 | 1.6 | 12.9 | 0.00 | 0.00 | 0.00 | 94 | 1011.2 |
| 20260505115502 | 21 | 205 | 1.6 | 14.5 | 0.00 | 0.00 | 0.00 | 94 | 1010.8 |
| 20260505115004 | 21 | 145 | 1.6 | 14.5 | 0.00 | 0.00 | 0.00 | 94 | 1010.9 |
| 20260505114501 | 21 | 177 | 0.0 | 9.7 | 0.00 | 0.00 | 0.00 | 94 | 1011.2 |
| 20260505114000 | 21 | 207 | 0.0 | 9.7 | 0.00 | 0.00 | 0.00 | 94 | 1011.3 |
| 20260505113457 | 21 | 185 | 0.0 | 11.3 | 0.00 | 0.00 | 0.00 | 94 | 1010.8 |
| 20260505112958 | 21 | 207 | 1.6 | 16.1 | 0.00 | 0.00 | 0.00 | 94 | 1010.8 |
| 20260505112457 | 21 | 177 | 1.6 | 16.1 | 0.00 | 0.00 | 0.00 | 94 | 1010.8 |
| 20260505111958 | 21 | 176 | 1.6 | 16.1 | 0.00 | 0.00 | 0.00 | 94 | 1010.8 |
| 20260505111458 | 21 | 209 | 1.6 | 14.5 | 0.00 | 0.00 | 0.00 | 94 | 1010.9 |
| 20260505110956 | 21 | 191 | 1.6 | 14.5 | 0.00 | 0.00 | 0.00 | 94 | 1011.0 |